Waarnemingen

Advertentie
Mijn weer
Charleroi/Gosselies, België (6449): temperatuur & dauwpunt: 19.06.2018 02:00:00 - 25.06.2018 02:00:00 (CEST)Charleroi/Gosselies, België (6449): windsnelheid & windstoten: 19.06.2018 02:00:00 - 25.06.2018 02:00:00 (CEST)Charleroi/Gosselies, België (6449): windrichting: 19.06.2018 02:00:00 - 25.06.2018 02:00:00 (CEST)Charleroi/Gosselies, België (6449): luchtdruk: 19.06.2018 02:00:00 - 25.06.2018 02:00:00 (CEST)Charleroi/Gosselies, België (6449): zicht: 19.06.2018 02:00:00 - 25.06.2018 02:00:00 (CEST)
Datum & Tijd tt [°C] td [°C] ff [km/u] ff [kn] fx [km/u] fx [kn] dd ppp [hPa] vv [km]
25.06.2018 02:00:00 13,0 8,0 8 4 - - NNW - 10
25.06.2018 01:00:00 13,2 8,4 8 4 18 10 N 1024,5 10
25.06.2018 00:00:00 13,6 9,6 8 4 18 10 NNW 1024,4 10
24.06.2018 23:00:00 15,0 10,4 9 5 - - NNW 1024,2 10
24.06.2018 22:00:00 16,3 10,1 15 8 25 14 N 1023,7 10
24.06.2018 21:00:00 17,6 9,5 16 9 25 14 N 1023,4 10
24.06.2018 20:00:00 18,4 9,1 16 9 - - NNO 1023,2 10
24.06.2018 19:00:00 19,5 8,1 15 8 25 14 N 1023,0 10
24.06.2018 18:00:00 19,6 8,8 15 8 25 14 N 1023,3 10
24.06.2018 17:00:00 19,4 8,2 11 6 - - N 1023,5 10
24.06.2018 16:00:00 19,2 7,3 15 8 29 16 - 1023,7 10
24.06.2018 15:00:00 18,6 6,9 9 5 25 14 N 1024,0 10
24.06.2018 14:00:00 17,2 7,5 11 6 - - N 1024,5 10
24.06.2018 13:00:00 16,7 8,3 9 5 25 14 N 1024,7 10
24.06.2018 12:00:00 15,5 8,2 11 6 22 12 NNO 1025,0 10
24.06.2018 11:00:00 14,0 8,2 13 7 - - NNO 1024,9 10
24.06.2018 10:00:00 13,7 8,7 13 7 25 14 N 1024,7 10
24.06.2018 09:00:00 12,6 9,1 11 6 18 10 N 1024,6 10
24.06.2018 08:00:00 11,4 9,4 8 4 - - NNW 1024,6 10
24.06.2018 07:00:00 11,0 9,0 8 4 14 8 NW 1024,4 10
24.06.2018 06:00:00 10,4 8,0 5 3 11 6 NW 1024,2 10
24.06.2018 05:00:00 11,0 7,9 5 3 - - WNW 1024,2 10
24.06.2018 04:00:00 11,0 7,3 5 3 7 4 W 1024,7 10
24.06.2018 03:00:00 11,7 7,3 4 2 14 8 - 1024,9 10
24.06.2018 02:00:00 13,2 6,8 5 3 - - NW 1025,4 10
24.06.2018 01:00:00 13,6 6,2 5 3 11 6 NNW 1025,4 10
24.06.2018 00:00:00 14,7 5,6 8 4 14 8 NNW 1025,6 10
23.06.2018 23:00:00 15,9 7,2 8 4 - - NNW 1025,4 10
23.06.2018 22:00:00 17,1 7,4 8 4 14 8 NW 1025,1 10
23.06.2018 21:00:00 18,4 6,4 5 3 14 8 NW 1025,0 10
23.06.2018 20:00:00 18,6 6,4 9 5 - - W 1025,2 10
23.06.2018 19:00:00 18,9 6,1 8 4 18 10 NW 1025,6 10
23.06.2018 18:00:00 19,0 6,8 9 5 18 10 N 1026,1 10
23.06.2018 17:00:00 19,2 7,3 8 4 - - NO 1026,5 10
23.06.2018 16:00:00 18,7 7,6 9 5 18 10 N 1027,3 10
23.06.2018 15:00:00 18,2 6,9 8 4 22 12 - 1027,7 10
23.06.2018 14:00:00 18,6 7,0 9 5 - - N 1028,1 10
23.06.2018 13:00:00 16,6 6,9 9 5 18 10 N 1028,8 10
23.06.2018 12:00:00 16,4 7,3 5 3 18 10 - 1028,7 10
23.06.2018 11:00:00 14,8 6,9 8 4 - - NNW 1029,2 10
23.06.2018 10:00:00 12,3 6,7 11 6 18 10 N 1029,6 10
23.06.2018 09:00:00 11,9 7,2 9 5 14 8 N 1029,8 10
23.06.2018 08:00:00 10,6 7,0 9 5 - - N 1029,6 10
23.06.2018 07:00:00 8,9 6,5 5 3 11 6 N 1029,6 10
23.06.2018 06:00:00 7,4 5,9 5 3 11 6 NNW 1029,5 10
23.06.2018 05:00:00 7,6 5,9 5 3 - - NW 1029,4 10
23.06.2018 04:00:00 7,8 6,2 5 3 11 6 NW 1029,3 10
23.06.2018 03:00:00 8,7 6,5 8 4 14 8 NW 1029,7 10
23.06.2018 02:00:00 9,6 6,8 9 5 - - NNW 1029,9 10
23.06.2018 01:00:00 10,6 7,0 9 5 14 8 NNW 1030,0 10
23.06.2018 00:00:00 11,3 7,2 9 5 14 8 NNW 1029,8 10
22.06.2018 23:00:00 11,7 6,9 9 5 - - NNW 1029,8 10
22.06.2018 22:00:00 12,5 6,8 11 6 29 16 N 1029,3 20
22.06.2018 21:00:00 13,8 6,2 15 8 32 18 N 1029,0 10
22.06.2018 20:00:00 15,4 5,3 16 9 - - NNW 1028,8 10
22.06.2018 19:00:00 15,3 4,4 21 11 40 21 N 1028,9 10
22.06.2018 18:00:00 16,4 4,9 21 11 36 19 N 1028,6 10
22.06.2018 17:00:00 17,4 5,5 21 11 - - NNW 1028,4 10
22.06.2018 16:00:00 18,1 4,6 22 12 40 21 N 1028,1 10
22.06.2018 15:00:00 16,9 3,7 15 8 40 21 NNW 1028,1 10
22.06.2018 14:00:00 17,1 3,5 18 10 - - NNW 1028,0 20
22.06.2018 13:00:00 16,0 3,9 18 10 36 19 NW 1028,1 10
22.06.2018 12:00:00 17,0 3,6 22 12 43 23 NNW 1027,8 20
22.06.2018 11:00:00 15,1 6,4 15 8 - - NW 1028,1 10
22.06.2018 10:00:00 14,1 7,8 15 8 32 18 WNW 1028,1 10
22.06.2018 09:00:00 12,1 7,2 11 6 25 14 W 1028,2 10
22.06.2018 08:00:00 10,2 6,1 13 7 - - W 1028,1 10
22.06.2018 07:00:00 7,2 4,9 11 6 22 12 WZW 1028,3 10
22.06.2018 06:00:00 6,5 4,7 9 5 14 8 W 1028,2 10
22.06.2018 05:00:00 6,7 4,9 11 6 - - WZW 1028,0 10
22.06.2018 04:00:00 7,0 4,9 11 6 14 8 WZW 1028,0 10
22.06.2018 03:00:00 7,3 5,0 8 4 11 6 W 1028,1 10
22.06.2018 02:00:00 7,5 5,0 5 3 - - W 1028,3 10
22.06.2018 01:00:00 8,4 5,0 5 3 18 10 NW 1028,2 10
22.06.2018 00:00:00 9,4 4,8 9 5 18 10 NW 1028,3 10
21.06.2018 23:00:00 10,3 4,9 9 5 - - NW 1027,9 10
21.06.2018 22:00:00 11,5 3,6 13 7 32 18 NNW 1027,3 10
21.06.2018 21:00:00 13,1 5,1 21 11 32 18 NNW 1026,7 10
21.06.2018 20:00:00 13,2 6,1 18 10 - - NNW 1026,3 10
21.06.2018 19:00:00 14,6 5,3 22 12 40 21 NNW 1025,8 10
21.06.2018 18:00:00 14,3 3,1 21 11 43 23 NNW 1025,5 10
21.06.2018 17:00:00 15,5 3,4 21 11 - - NNW 1024,7 10
21.06.2018 16:00:00 15,4 3,8 21 11 36 19 NNW 1023,9 10
21.06.2018 15:00:00 16,8 4,5 22 12 40 21 NNW 1023,2 10
21.06.2018 14:00:00 17,2 4,1 22 12 - - NNW 1022,5 20
21.06.2018 13:00:00 16,0 5,4 16 9 32 18 WNW 1022,2 10
21.06.2018 12:00:00 16,0 6,4 16 9 36 19 NW 1022,0 10
21.06.2018 11:00:00 14,1 8,0 21 11 - - NNW 1021,5 10
21.06.2018 10:00:00 14,9 10,8 11 6 32 18 NW 1020,5 10
21.06.2018 09:00:00 14,5 12,5 13 7 25 14 WNW 1019,6 7
21.06.2018 08:00:00 14,5 13,7 11 6 - - W 1018,9 4,8
21.06.2018 07:00:00 14,3 13,7 15 8 29 16 W 1018,4 2,8
21.06.2018 06:00:00 14,5 13,5 13 7 25 14 W 1018,0 10
21.06.2018 05:00:00 14,5 13,4 16 9 - - WZW 1018,0 10
21.06.2018 04:00:00 15,5 13,4 15 8 22 12 WZW 1018,1 10
21.06.2018 03:00:00 16,3 13,6 13 7 18 10 WZW 1018,5 10
21.06.2018 02:00:00 16,5 13,8 11 6 - - W 1019,0 25
21.06.2018 01:00:00 18,0 14,3 13 7 18 10 W 1018,9 10
21.06.2018 00:00:00 18,8 14,6 9 5 14 8 WZW 1019,1 10
20.06.2018 23:00:00 19,6 15,0 8 4 - - WZW 1019,4 10
20.06.2018 22:00:00 21,1 14,7 8 4 18 10 W 1019,1 10
20.06.2018 21:00:00 22,7 14,8 9 5 22 12 WNW 1018,9 10
20.06.2018 20:00:00 24,4 13,5 13 7 - - W 1019,1 10
20.06.2018 19:00:00 25,2 14,1 15 8 25 14 WZW 1019,3 10
20.06.2018 18:00:00 25,5 13,2 13 7 29 16 W 1019,7 10
20.06.2018 17:00:00 25,9 14,9 13 7 - - W 1019,9 10
20.06.2018 16:00:00 25,4 15,2 9 5 25 14 W 1020,3 10
20.06.2018 15:00:00 25,1 14,6 9 5 29 16 W 1020,8 10
20.06.2018 14:00:00 24,6 14,3 9 5 - - - 1021,3 10
20.06.2018 13:00:00 23,7 15,3 13 7 22 12 W 1021,9 10
20.06.2018 12:00:00 22,6 15,1 9 5 29 16 WZW 1022,4 10
20.06.2018 11:00:00 20,7 14,6 13 7 - - ZW 1022,8 10
20.06.2018 10:00:00 19,6 14,9 18 10 22 12 WZW 1023,0 25
20.06.2018 09:00:00 18,6 14,6 15 8 22 12 ZW 1023,0 10
20.06.2018 08:00:00 17,7 14,4 13 7 - - ZW 1023,0 10
20.06.2018 07:00:00 17,1 14,3 11 6 18 10 ZW 1023,3 10
20.06.2018 06:00:00 16,6 14,5 9 5 14 8 ZZW 1023,4 10
20.06.2018 05:00:00 16,5 14,6 4 2 - - - 1023,6 10
20.06.2018 04:00:00 16,3 14,7 4 2 7 4 WZW 1024,0 10
20.06.2018 03:00:00 16,5 15,1 4 2 11 6 W 1024,2 25
20.06.2018 02:00:00 16,8 14,9 5 3 - - WNW 1024,6 10
20.06.2018 01:00:00 17,1 15,6 4 2 7 4 - 1024,9 10
20.06.2018 00:00:00 17,5 15,9 5 3 11 6 WZW 1024,9 10
19.06.2018 23:00:00 17,7 15,9 8 4 - - WZW 1024,9 10
19.06.2018 22:00:00 17,9 15,6 9 5 18 10 WZW 1024,7 10
19.06.2018 21:00:00 18,3 16,1 11 6 18 10 WZW 1024,6 10
19.06.2018 20:00:00 18,9 16,2 9 5 - - WZW 1024,6 10
19.06.2018 19:00:00 19,2 16,0 11 6 18 10 WZW 1024,8 10
19.06.2018 18:00:00 18,9 15,5 11 6 22 12 ZW 1024,9 25
19.06.2018 17:00:00 19,0 15,3 13 7 - - ZW 1025,2 10
19.06.2018 16:00:00 18,6 15,4 11 6 22 12 ZW 1025,4 10
19.06.2018 15:00:00 18,3 15,2 15 8 22 12 WZW 1025,4 10
19.06.2018 14:00:00 18,3 15,0 9 5 - - W 1025,5 10
19.06.2018 13:00:00 17,4 15,1 15 8 22 12 WZW 1025,5 10
19.06.2018 12:00:00 16,5 15,6 11 6 22 12 WZW 1025,5 6
19.06.2018 11:00:00 16,2 15,5 13 7 - - W 1025,3 6
19.06.2018 10:00:00 15,9 15,3 15 8 25 14 WZW 1025,2 4,8
19.06.2018 09:00:00 16,3 14,7 16 9 25 14 WZW 1024,9 10
19.06.2018 08:00:00 15,8 14,2 16 9 - - ZW 1024,5 10
19.06.2018 07:00:00 15,4 14,1 18 10 29 16 ZW 1024,3 10
19.06.2018 06:00:00 15,0 13,9 16 9 25 14 WZW 1024,1 10
19.06.2018 05:00:00 14,9 13,6 14 8 - - WZW 1023,7 15
19.06.2018 04:00:00 14,6 13,2 18 10 25 14 ZW 1023,5 15
19.06.2018 03:00:00 13,8 12,6 18 10 29 16 ZW 1023,4 15
19.06.2018 02:00:00 13,5 11,9 18 10 - - WZW 1023,5 20

tt = temperatuur
td = dauwpunt
ff = windsnelheid
fx = windstoten
dd = windrichting
ppp = luchtdruk
vv = zicht

Weerstations in de omgeving